FW9898 Weather Reports


time (UTC)temp
F
wind
direction
speed
knots
gust
knots
rain 1hr
in
rain 24hr
in
rain mn
in
humidity
%
barometer
mb
20260509162048 75 71 0.0 0.9 0.00 0.00 0.00 82 1013.4
20260509161544 75 67 1.7 2.6 0.00 0.00 0.00 82 1013.3
20260509161039 76 67 0.9 0.9 0.00 0.00 0.00 81 1013.0
20260509160535 76 67 0.9 0.9 0.00 0.00 0.00 82 1013.4
20260509160031 75 65 0.9 0.9 0.00 0.00 0.00 82 1013.2
20260509155527 75 65 1.7 2.6 0.00 0.00 0.00 82 1013.1
20260509155023 75 65 1.7 2.6 0.00 0.00 0.00 84 1013.1
20260509154520 75 65 1.7 2.6 0.00 0.00 0.00 86 1013.4
20260509154018 74 65 1.7 2.6 0.00 0.00 0.00 88 1013.3
20260509153514 74 65 0.0 0.9 0.00 0.00 0.00 89 1013.2
20260509153011 74 65 0.0 0.9 0.00 0.00 0.00 90 1013.6
20260509152507 74 65 0.9 0.9 0.00 0.00 0.00 91 1013.7
20260509152004 73 65 0.0 0.0 0.00 0.00 0.00 91 1013.8
20260509151500 73 65 0.9 0.9 0.00 0.00 0.00 91 1013.9
20260509150959 73 65 0.9 0.9 0.00 0.00 0.00 91 1014.0
20260509150455 73 65 0.0 0.0 0.00 0.00 0.00 92 1014.2
20260509145953 73 65 0.0 0.0 0.00 0.00 0.00 92 1014.1
20260509145449 73 65 0.9 0.9 0.00 0.00 0.00 92 1013.9
20260509144944 73 65 0.0 0.0 0.00 0.00 0.00 92 1013.9
20260509144441 73 65 0.0 0.0 0.00 0.00 0.00 92 1013.9
20260509143938 73 65 0.0 0.0 0.00 0.00 0.00 92 1014.1
20260509143435 73 65 0.0 0.0 0.00 0.00 0.00 92 1013.8
20260509142932 73 65 0.0 0.0 0.00 0.00 0.00 92 1013.9
20260509142428 73 65 0.0 0.0 0.00 0.00 0.00 92 1013.7
20260509141924 73 65 0.0 0.0 0.00 0.00 0.00 92 1013.9
20260509141421 73 65 0.0 0.0 0.00 0.00 0.00 92 1013.5
20260509140918 73 65 0.0 0.0 0.00 0.00 0.00 92 1013.3
20260509140414 72 65 0.0 0.0 0.00 0.00 0.00 92 1013.3
20260509135913 72 65 0.0 0.0 0.00 0.00 0.00 92 1013.6
20260509135410 72 65 0.0 0.0 0.00 0.00 0.00 92 1013.3
20260509134907 72 65 0.0 0.0 0.00 0.00 0.00 92 1013.5
20260509134404 71 65 0.0 0.0 0.00 0.00 0.00 92 1013.5
20260509133901 71 65 0.0 0.0 0.00 0.00 0.00 93 1013.7
20260509133358 71 65 0.0 0.0 0.00 0.00 0.00 93 1013.6
20260509132856 71 65 0.0 0.0 0.00 0.00 0.00 93 1013.6
20260509132354 71 65 0.0 0.0 0.00 0.00 0.00 93 1013.7
20260509131851 71 65 0.0 0.0 0.00 0.00 0.00 93 1013.7
20260509131348 71 138 0.0 0.0 0.00 0.00 0.00 93 1013.7
20260509130844 70 138 0.0 0.0 0.00 0.00 0.00 93 1013.8
20260509130340 70 138 0.0 0.0 0.00 0.00 0.00 94 1013.7
20260509125837 70 138 0.0 0.0 0.00 0.00 0.00 94 1014.0
20260509125333 70 138 0.0 0.0 0.00 0.00 0.00 94 1013.8
20260509124829 69 138 0.0 0.0 0.00 0.00 0.00 94 1013.9
20260509124327 69 138 0.0 0.0 0.00 0.00 0.00 95 1013.7
20260509123825 69 137 0.0 0.0 0.00 0.00 0.00 96 1014.0
20260509123322 69 137 0.0 0.0 0.00 0.00 0.00 97 1013.9
20260509122817 68 136 0.0 0.0 0.00 0.00 0.00 98 1014.0
20260509122314 68 136 0.0 0.0 0.00 0.00 0.00 98 1013.8
20260509121811 68 136 0.0 0.0 0.00 0.00 0.00 99 1013.8
20260509121308 67 136 0.0 0.0 0.00 0.00 0.00 99 1013.8
20260509120807 67 136 0.0 0.0 0.00 0.00 0.00 99 1013.7
20260509120304 66 136 0.0 0.0 0.00 0.00 0.00 99 1013.7
20260509115802 66 135 0.0 0.0 0.00 0.00 0.00 99 1013.9
20260509115259 66 135 0.0 0.0 0.00 0.00 0.00 99 1013.6
20260509114756 65 134 0.0 0.0 0.00 0.00 0.00 99 1013.6
20260509114255 65 134 0.0 0.0 0.00 0.00 0.00 99 1013.5
20260509113754 65 134 0.0 0.0 0.00 0.00 0.00 99 1013.6
20260509113250 65 142 0.0 0.0 0.00 0.00 0.00 99 1013.5
20260509112747 65 141 0.0 0.0 0.00 0.00 0.00 99 1013.5
20260509112244 65 141 0.0 0.0 0.00 0.00 0.00 99 1013.3
20260509111742 65 140 0.0 0.0 0.00 0.00 0.00 99 1013.4
20260509111238 64 140 0.0 0.0 0.00 0.00 0.00 99 1013.4
20260509110735 64 140 0.0 0.0 0.00 0.00 0.00 99 1013.4
20260509110232 64 139 0.0 0.0 0.00 0.00 0.00 99 1013.2
20260509105730 64 138 0.0 0.0 0.00 0.00 0.00 99 1013.2
20260509105228 64 138 0.0 0.0 0.00 0.00 0.00 99 1013.3
20260509104724 64 135 0.0 0.0 0.00 0.00 0.00 99 1013.1
20260509104221 64 135 0.0 0.0 0.00 0.00 0.00 99 1013.1
20260509103720 64 135 0.0 0.0 0.00 0.00 0.00 99 1013.1
20260509103216 64 135 0.0 0.0 0.00 0.00 0.00 99 1012.9
20260509102715 64 135 0.0 0.0 0.00 0.00 0.00 99 1012.7
20260509102211 64 135 0.0 0.0 0.00 0.00 0.00 99 1012.8
20260509101707 64 135 0.0 0.0 0.00 0.00 0.00 99 1013.0
20260509101204 64 135 0.0 0.0 0.00 0.00 0.00 99 1012.9
20260509100701 64 135 0.0 0.0 0.00 0.00 0.00 99 1012.6
20260509100158 64 135 0.0 0.0 0.00 0.00 0.00 99 1012.8
20260509095655 65 135 0.0 0.0 0.00 0.00 0.00 99 1012.9
20260509095153 65 135 0.0 0.0 0.00 0.00 0.00 99 1013.0
20260509094649 65 135 0.0 0.0 0.00 0.00 0.00 99 1012.8
20260509094146 65 135 0.0 0.0 0.00 0.00 0.00 99 1012.6
20260509093644 65 135 0.0 0.0 0.00 0.00 0.00 99 1012.8
20260509093141 65 138 0.0 0.0 0.00 0.00 0.00 99 1012.9
20260509092639 65 138 0.0 0.0 0.00 0.00 0.00 99 1012.9
20260509092138 65 138 0.0 0.0 0.00 0.00 0.00 99 1013.1
20260509091635 65 138 0.0 0.0 0.00 0.00 0.00 99 1013.2
20260509091131 65 138 0.0 0.0 0.00 0.00 0.00 99 1013.2
20260509090629 65 138 0.0 0.0 0.00 0.00 0.00 99 1013.1
20260509090126 65 138 0.0 0.0 0.00 0.00 0.00 98 1013.0
20260509085623 65 138 0.9 0.9 0.00 0.00 0.00 98 1013.1
20260509085119 65 138 0.0 0.0 0.00 0.00 0.00 98 1013.2
20260509084617 65 138 0.0 0.0 0.00 0.00 0.00 98 1012.9
20260509084113 64 138 0.0 0.0 0.00 0.00 0.00 98 1012.9
20260509083611 64 139 0.9 0.9 0.00 0.00 0.00 98 1013.0
20260509083107 64 139 0.0 0.0 0.00 0.00 0.00 98 1013.5
20260509082605 64 139 0.0 0.0 0.00 0.00 0.00 98 1013.4
20260509082101 64 140 0.0 0.0 0.00 0.00 0.00 98 1013.4
20260509081559 64 140 0.0 0.0 0.00 0.00 0.00 97 1013.4
20260509081055 64 140 0.0 0.0 0.00 0.00 0.00 97 1013.2
20260509080554 64 140 0.0 0.0 0.00 0.00 0.00 97 1013.4
20260509080051 65 140 0.0 0.0 0.00 0.00 0.00 97 1013.2
20260509075549 65 140 0.0 0.0 0.00 0.00 0.00 97 1013.5
20260509075047 65 140 0.0 0.0 0.00 0.00 0.00 97 1013.7
20260509074543 65 140 0.0 0.0 0.00 0.00 0.00 97 1013.6
20260509074040 65 140 0.0 0.0 0.00 0.00 0.00 97 1014.0
20260509073536 65 140 0.0 0.0 0.00 0.00 0.00 97 1013.3
20260509073033 65 140 0.0 0.0 0.00 0.00 0.00 96 1013.3
20260509072529 65 141 0.0 0.0 0.00 0.00 0.00 96 1013.2
20260509072026 65 141 0.9 0.9 0.00 0.00 0.00 96 1013.1
20260509071523 65 141 0.0 0.0 0.00 0.00 0.00 96 1013.0
20260509071020 65 141 0.0 0.0 0.00 0.00 0.00 96 1012.9
20260509070518 65 141 0.0 0.0 0.00 0.00 0.00 95 1013.3
20260509070014 66 141 0.0 0.0 0.00 0.00 0.00 95 1013.7
20260509065509 66 141 0.0 0.0 0.00 0.00 0.00 95 1013.5
20260509065006 66 141 0.0 0.0 0.00 0.00 0.00 95 1013.2
20260509064503 66 141 0.9 0.9 0.00 0.00 0.00 94 1013.6
20260509064001 66 141 0.0 0.9 0.00 0.00 0.00 94 1014.3
20260509063456 66 142 0.0 0.0 0.00 0.00 0.00 94 1014.4
20260509062954 65 142 0.9 0.9 0.00 0.00 0.00 94 1014.1
20260509062451 65 142 0.0 0.9 0.00 0.00 0.00 94 1013.8
20260509061949 65 142 0.9 0.9 0.00 0.00 0.00 94 1013.6
20260509061446 65 142 0.0 0.0 0.00 0.00 0.00 94 1013.9
20260509060943 65 142 0.0 0.0 0.00 0.00 0.00 94 1014.0
20260509060440 65 142 0.0 0.0 0.00 0.00 0.00 94 1014.6
20260509055935 65 142 0.0 0.0 0.00 0.00 0.00 94 1014.7
20260509055431 65 142 0.0 0.9 0.00 0.00 0.00 94 1014.4
20260509054927 65 142 0.0 0.0 0.00 0.00 0.00 94 1014.3
20260509054424 65 143 0.0 0.0 0.00 0.00 0.00 94 1013.9
20260509053923 65 143 0.0 0.0 0.00 0.00 0.00 94 1014.0
20260509053420 65 143 0.0 0.0 0.00 0.00 0.00 94 1014.1
20260509052918 65 143 0.0 0.0 0.00 0.00 0.00 94 1014.4
20260509052415 65 143 0.0 0.0 0.00 0.00 0.00 94 1014.8
20260509051913 65 143 0.9 0.9 0.00 0.00 0.00 94 1015.0
20260509051411 65 143 0.0 0.0 0.00 0.00 0.00 93 1015.4
20260509050907 65 143 0.0 0.0 0.00 0.00 0.00 93 1015.6
20260509050404 65 143 0.0 0.0 0.00 0.00 0.00 93 1015.3
20260509045901 65 143 0.0 0.0 0.00 0.00 0.00 94 1015.4
20260509045357 65 143 0.0 0.0 0.00 0.00 0.00 94 1015.6
20260509044855 64 143 0.0 0.0 0.00 0.00 0.00 94 1015.8
20260509044353 64 143 0.0 0.0 0.00 0.00 0.00 94 1015.7
20260509043849 64 143 0.0 0.0 0.00 0.00 0.00 94 1015.4
20260509043345 64 143 0.0 0.0 0.00 0.00 0.00 94 1014.9
20260509042841 64 143 0.0 0.0 0.00 0.00 0.00 94 1015.0
20260509042337 64 143 0.0 0.0 0.00 0.00 0.00 94 1015.2
20260509041834 64 143 0.0 0.0 0.00 0.00 0.00 94 1015.8
20260509041331 64 143 0.0 0.0 0.00 0.00 0.00 93 1016.0
20260509040829 64 143 0.0 0.0 0.00 0.00 0.00 93 1016.1
20260509040326 64 144 0.0 0.0 0.00 0.00 0.00 93 1016.3
20260509035823 64 144 0.0 0.0 0.00 0.00 0.00 93 1015.9
20260509035321 64 144 0.0 0.0 0.00 0.00 0.00 93 1016.1
20260509034817 64 144 0.0 0.0 0.00 0.00 0.00 93 1016.1
20260509034315 64 144 0.0 0.0 0.00 0.00 0.00 93 1016.2
20260509033811 64 144 0.0 0.0 0.00 0.00 0.00 92 1016.4
20260509033309 64 144 0.0 0.0 0.00 0.00 0.00 92 1016.2
20260509032805 64 144 0.0 0.0 0.00 0.00 0.00 92 1016.1
20260509032306 64 144 0.0 0.0 0.00 0.00 0.00 92 1016.3
20260509031800 64 144 0.0 0.0 0.00 0.00 0.00 92 1016.2
20260509031257 64 144 0.0 0.0 0.00 0.00 0.00 92 1016.3
20260509030755 64 144 0.0 0.0 0.00 0.00 0.00 92 1016.2
20260509030253 64 144 0.0 0.0 0.00 0.00 0.00 92 1016.3
20260509025749 64 144 0.0 0.0 0.00 0.00 0.00 92 1016.5
20260509025244 64 144 0.0 0.0 0.00 0.00 0.00 91 1016.2
20260509024740 64 144 0.0 0.0 0.00 0.00 0.00 91 1015.9
20260509024236 64 144 0.0 0.0 0.00 0.00 0.00 90 1016.1
20260509023734 64 144 0.0 0.0 0.00 0.00 0.00 90 1015.9
20260509023231 64 144 0.0 0.0 0.00 0.00 0.00 90 1016.0
20260509022727 64 144 0.0 0.0 0.00 0.00 0.00 90 1016.3
20260509022225 64 144 0.0 0.0 0.00 0.00 0.00 89 1016.0
20260509021721 64 144 0.0 0.0 0.00 0.00 0.00 89 1015.9
20260509021219 64 144 0.0 0.0 0.00 0.00 0.00 89 1015.8
20260509020717 64 144 0.0 0.0 0.00 0.00 0.00 89 1016.1
20260509020213 64 144 0.0 0.0 0.00 0.00 0.00 89 1016.0
20260509015712 64 144 0.0 0.0 0.00 0.00 0.00 89 1016.2
20260509015210 64 144 0.0 0.0 0.00 0.00 0.00 88 1016.1
20260509014706 64 144 0.0 0.0 0.00 0.00 0.00 88 1016.0
20260509014203 64 144 0.0 0.0 0.00 0.00 0.00 88 1015.8
20260509013659 64 144 0.0 0.0 0.00 0.00 0.00 88 1015.6
20260509013155 64 144 0.0 0.0 0.00 0.00 0.00 87 1015.8
20260509012652 65 144 0.0 0.0 0.00 0.00 0.00 87 1015.6
20260509012149 65 144 0.0 0.0 0.00 0.00 0.00 87 1015.7
20260509011647 65 144 0.0 0.0 0.00 0.00 0.00 86 1015.7
20260509011144 65 144 0.0 0.0 0.00 0.00 0.00 86 1015.9
20260509010641 65 144 0.0 0.0 0.00 0.00 0.00 86 1015.7
20260509010137 65 144 0.0 0.0 0.00 0.00 0.00 86 1015.8
20260509005635 65 144 0.0 0.0 0.00 0.00 0.00 86 1015.8
20260509005131 65 144 0.0 0.0 0.00 0.00 0.00 86 1015.7
20260509004627 65 144 0.0 0.0 0.00 0.00 0.00 86 1015.6
20260509004124 65 144 0.0 0.0 0.00 0.00 0.00 85 1015.6
20260509003623 65 144 0.0 0.0 0.00 0.00 0.00 85 1015.6
20260509003120 65 144 0.0 0.0 0.00 0.00 0.00 85 1015.5
20260509002617 65 144 0.0 0.0 0.00 0.00 0.00 84 1015.2
20260509002114 65 144 0.0 0.0 0.00 0.00 0.00 84 1015.3
20260509001612 65 144 0.0 0.0 0.00 0.00 0.00 84 1015.4
20260509001107 65 144 0.0 0.0 0.00 0.00 0.00 84 1015.5
20260509000606 65 144 0.0 0.0 0.00 0.00 0.00 84 1015.6
20260508235600 66 144 0.0 0.0 0.00 0.00 0.00 84 1015.3
20260508235056 66 144 0.0 0.0 0.00 0.00 0.00 84 1015.2
20260508234553 66 144 0.0 0.0 0.00 0.00 0.00 84 1015.3
20260508234050 66 144 0.0 0.0 0.00 0.00 0.00 83 1015.2
20260508233549 66 144 0.0 0.0 0.00 0.00 0.00 83 1015.2
20260508233046 66 144 0.0 0.0 0.00 0.00 0.00 83 1015.1
20260508232543 66 144 0.0 0.0 0.00 0.00 0.00 82 1015.2
20260508232040 66 144 0.0 0.0 0.00 0.00 0.00 82 1015.5
20260508231538 66 144 0.0 0.0 0.00 0.00 0.00 82 1015.4
20260508231035 66 144 0.0 0.0 0.00 0.00 0.00 81 1015.2
20260508230531 66 144 0.0 0.0 0.00 0.00 0.00 82 1015.3
20260508230028 66 144 0.0 0.9 0.00 0.00 0.00 82 1015.4
20260508225525 66 144 0.9 0.9 0.00 0.00 0.00 81 1015.2
20260508225022 66 144 0.0 0.0 0.00 0.00 0.00 81 1015.4
20260508224520 66 144 0.0 0.0 0.00 0.00 0.00 81 1015.2
20260508224017 66 144 0.0 0.0 0.00 0.00 0.00 81 1015.2
20260508223515 66 144 0.0 0.9 0.00 0.00 0.00 81 1015.2
20260508223012 66 144 0.0 0.9 0.00 0.00 0.00 81 1014.9
20260508222509 66 144 0.0 0.0 0.00 0.00 0.00 81 1015.3
20260508222005 66 144 0.9 0.9 0.00 0.00 0.00 80 1015.3
20260508221502 66 144 0.9 0.9 0.00 0.00 0.00 80 1015.4
20260508220958 66 144 0.0 0.0 0.00 0.00 0.00 79 1015.4
20260508220454 67 144 0.9 0.9 0.00 0.00 0.00 79 1015.2
20260508215950 66 144 0.9 0.9 0.00 0.00 0.00 79 1015.3
20260508215448 67 144 0.0 0.0 0.00 0.00 0.00 78 1015.0
20260508214944 67 144 0.0 0.0 0.00 0.00 0.00 78 1015.2
20260508214442 67 144 0.0 0.0 0.00 0.00 0.00 77 1015.3
20260508213938 67 144 0.0 0.0 0.00 0.00 0.00 78 1015.2
20260508213436 67 144 2.6 2.6 0.00 0.00 0.00 77 1015.4
20260508212931 67 144 1.7 2.6 0.00 0.00 0.00 77 1015.4
20260508212428 67 144 1.7 2.6 0.00 0.00 0.00 78 1015.5
20260508211924 67 144 1.7 2.6 0.00 0.00 0.00 78 1015.5
20260508211420 67 144 0.9 0.9 0.00 0.00 0.00 78 1015.3
20260508210917 67 144 0.0 0.9 0.00 0.00 0.00 78 1015.2
20260508210413 66 144 0.9 0.9 0.00 0.00 0.00 79 1015.2
20260508205910 67 144 0.0 0.0 0.00 0.00 0.00 79 1015.1
20260508205407 66 144 0.9 0.9 0.00 0.00 0.00 79 1015.4
20260508204903 67 144 0.9 0.9 0.00 0.00 0.00 77 1015.4
20260508204400 67 144 0.0 0.0 0.00 0.00 0.00 77 1015.4
20260508203855 66 144 0.9 0.9 0.00 0.00 0.00 77 1015.2
20260508203352 67 144 2.6 3.5 0.00 0.00 0.00 76 1015.0
20260508202848 67 145 0.0 0.9 0.00 0.00 0.00 76 1015.0
20260508202346 67 144 2.6 2.6 0.00 0.00 0.00 75 1015.2
20260508201843 67 144 1.7 2.6 0.00 0.00 0.00 74 1015.7
20260508201339 67 149 0.9 0.9 0.00 0.00 0.00 76 1015.6
20260508200836 68 162 2.6 2.6 0.00 0.00 0.00 76 1015.7
20260508200333 67 111 0.0 0.0 0.00 0.00 0.00 76 1015.7
20260508195828 67 114 1.7 2.6 0.00 0.00 0.00 75 1015.8
20260508195325 67 139 1.7 2.6 0.00 0.00 0.00 73 1016.0
20260508194822 68 153 2.6 3.5 0.00 0.00 0.00 74 1016.0
20260508194319 68 155 2.6 2.6 0.00 0.00 0.00 75 1016.0
20260508193810 68 120 2.6 3.5 0.00 0.00 0.00 74 1015.8
20260508193307 68 184 1.7 2.6 0.00 0.00 0.00 73 1015.9
20260508192803 68 155 0.0 0.0 0.00 0.00 0.00 73 1016.0
20260508192300 68 111 0.9 0.9 0.00 0.00 0.00 72 1015.9
20260508191757 69 112 0.0 0.9 0.00 0.00 0.00 72 1016.0
20260508191254 68 154 0.9 0.9 0.00 0.00 0.00 71 1015.9
20260508190752 68 111 0.0 0.9 0.00 0.00 0.00 71 1016.2
20260508190247 69 39 0.9 0.9 0.00 0.00 0.00 73 1016.0
20260508185744 69 178 0.0 0.9 0.00 0.00 0.00 70 1016.3
20260508185242 70 138 0.9 0.9 0.00 0.00 0.00 67 1016.2
20260508184739 71 86 0.9 2.6 0.00 0.00 0.00 67 1016.2
20260508184236 71 140 2.6 3.5 0.00 0.00 0.00 67 1016.2
20260508183732 71 71 2.6 2.6 0.00 0.00 0.00 66 1016.1
20260508183229 71 160 1.7 2.6 0.00 0.00 0.00 66 1016.2
20260508182725 71 148 0.0 0.0 0.00 0.00 0.00 64 1016.2
20260508182222 71 183 0.9 0.9 0.00 0.00 0.00 65 1016.6
20260508181718 70 121 2.6 4.3 0.00 0.00 0.00 67 1016.3
20260508181215 71 116 2.6 3.5 0.00 0.00 0.00 65 1016.7
20260508180712 71 49 2.6 3.5 0.00 0.00 0.00 65 1016.4
20260508180208 71 119 1.7 2.6 0.00 0.00 0.00 64 1016.5
20260508175705 71 177 0.9 0.9 0.00 0.00 0.00 63 1016.5
20260508175202 71 83 0.9 0.9 0.00 0.00 0.00 64 1016.6
20260508174700 71 80 1.7 2.6 0.00 0.00 0.00 64 1016.5
20260508174156 70 115 0.9 0.9 0.00 0.00 0.00 66 1016.5
20260508173653 71 134 2.6 2.6 0.00 0.00 0.00 64 1016.6
20260508173149 71 189 3.5 4.3 0.00 0.00 0.00 65 1016.5
20260508172646 71 94 1.7 2.6 0.00 0.00 0.00 66 1016.8
20260508172143 71 147 0.9 0.9 0.00 0.00 0.00 65 1016.7
20260508171639 71 134 1.7 2.6 0.00 0.00 0.00 65 1016.6
20260508171136 71 164 2.6 3.5 0.00 0.00 0.00 65 1017.0
20260508170633 71 158 0.9 0.9 0.00 0.00 0.00 64 1016.8
20260508170130 71 95 1.7 2.6 0.00 0.00 0.00 63 1016.7
20260508165627 71 81 1.7 2.6 0.00 0.00 0.00 62 1016.6
20260508165124 71 95 0.0 0.0 0.00 0.00 0.00 60 1016.7
20260508164620 71 31 0.9 0.9 0.00 0.00 0.00 61 1016.9
20260508164118 71 100 1.7 2.6 0.00 0.00 0.00 61 1017.1
20260508163615 71 70 0.0 0.9 0.00 0.00 0.00 61 1016.8
20260508163112 71 111 0.0 0.9 0.00 0.00 0.00 62 1017.2
20260508162608 71 37 3.5 4.3 0.00 0.00 0.00 60 1017.2